Home   Weather   Turkey   Istanbul   Past weeks
Flag for Turkey

Past Weather in Istanbul, Turkey — Yesterday and Last 2 Weeks

Currently: 63 °F. Sunny. (Weather station: Istanbul Ataturk Airport, Turkey). See more current weather

Past Weather in Istanbul — Graph

°F

Istanbul Temperature Yesterday

Maximum temperature yesterday: 72 °F (at 12:20 pm)
Minimum temperature yesterday: 55 °F (at 2:20 am)
Average temperature yesterday: 63 °F

High & Low Weather Summary for the Past Weeks

 TemperatureHumidityPressure
High77 °F (Apr 2, 3:50 pm)94% (Mar 31, 2:50 am)30.24 "Hg (Mar 31, 2:50 am)
Low52 °F (Apr 5, 4:50 am)24% (Apr 4, 6:20 pm)29.77 "Hg (Apr 2, 4:50 pm)
Average61 °F66%30.07 "Hg
* Reported Mar 29 8:20 am — Apr 13 8:20 am, Istanbul. Weather by CustomWeather, © 2024

Note: Actual official high and low records may vary slightly from our data, if they occured in-between our weather recording intervals... More about our weather records

Istanbul Weather History for the Previous 24 Hours

Scroll right to see more
 ConditionsComfort  
Time TempWeatherWind HumidityBarometerVisibility
8:20 am
Sat, Apr 13
61 °FSunny.7 mph77%30.21 "Hg10 mi
7:50 am59 °FSunny.6 mph82%30.21 "Hg10 mi
7:20 am57 °FSunny.6 mph88%30.21 "Hg10 mi
6:50 am57 °FSunny.12 mph88%30.21 "Hg10 mi
6:20 am57 °FClear.13 mph88%30.21 "Hg10 mi
5:50 am57 °FClear.13 mph88%30.21 "Hg10 mi
5:20 am57 °FClear.13 mph88%30.21 "Hg10 mi
4:50 am57 °FClear.10 mph88%30.21 "Hg10 mi
4:20 am57 °FClear.9 mph88%30.21 "Hg10 mi
3:50 am57 °FClear.14 mph88%30.18 "Hg10 mi
2:50 am57 °FClear.9 mph82%30.21 "Hg10 mi
2:20 am57 °FClear.6 mph82%30.21 "Hg10 mi
1:50 am57 °FClear.5 mph82%30.21 "Hg10 mi
1:20 am57 °FClear.3 mph82%30.21 "Hg10 mi
12:50 am57 °FClear.6 mph82%30.21 "Hg10 mi
11:50 pm
Fri, Apr 12
57 °FClear.3 mph82%30.21 "Hg10 mi
11:20 pm59 °FClear.7 mph82%30.21 "Hg10 mi
10:50 pm59 °FClear.9 mph77%30.24 "Hg10 mi
10:20 pm59 °FClear.7 mph82%30.21 "Hg10 mi
9:50 pm59 °FClear.10 mph82%30.21 "Hg10 mi
9:20 pm59 °FClear.10 mph82%30.21 "Hg10 mi
8:50 pm61 °FClear.13 mph77%30.21 "Hg10 mi
7:50 pm63 °FClear.14 mph64%30.18 "Hg10 mi
6:50 pm68 °FPassing clouds.13 mph49%30.18 "HgN/A
6:20 pm70 °FPassing clouds.13 mph46%30.18 "HgN/A
5:50 pm70 °FPassing clouds.13 mph46%30.18 "HgN/A
5:20 pm70 °FPassing clouds.14 mph46%30.18 "HgN/A
4:50 pm70 °FSunny.16 mph46%30.18 "Hg10 mi
4:20 pm72 °FSunny.16 mph47%30.18 "Hg10 mi
3:50 pm72 °FSunny.16 mph50%30.18 "Hg10 mi
2:50 pm72 °FSunny.15 mph47%30.21 "Hg10 mi
2:20 pm72 °FPassing clouds.14 mph47%30.21 "HgN/A
1:50 pm72 °FPassing clouds.14 mph47%30.21 "HgN/A
1:20 pm72 °FSunny.14 mph47%30.21 "Hg10 mi
12:50 pm72 °FPassing clouds.10 mph47%30.21 "HgN/A
12:20 pm72 °FPassing clouds.9 mph50%30.21 "HgN/A
11:50 am68 °FSunny.10 mph53%30.21 "Hg10 mi
10:50 am66 °FSunny.10 mph60%30.24 "Hg10 mi
10:20 am66 °FSunny.10 mph60%30.24 "Hg10 mi
9:50 am66 °FPassing clouds.8 mph64%30.24 "HgN/A
9:20 am64 °FPassing clouds.5 mph68%30.21 "HgN/A
Weather by CustomWeather, © 2024

See weather overview